This is the latest recevied weather packets stored in our database for station/object K7KAZ. If no packets are shown the sender has not sent any weather packets the latest 1 day(s).
| Time | Temp. | Humidity | Pressure | Rain* | Wind** | Luminosity | Snow |
|---|---|---|---|---|---|---|---|
| 1836274815 | 28.89° C | 54% | 1014.8 hPa | 0 mm | 1.34 m/s, 54° | 0 W/m² | - |
| 1836274512 | 28.89° C | 54% | 1014.6 hPa | 0 mm | 1.34 m/s, 34° | 0 W/m² | - |
| 1836274366 | 28.89° C | 55% | 1014.5 hPa | 0 mm | 1.79 m/s, 26° | 0 W/m² | - |
| 1836274210 | 28.89° C | 54% | 1014.6 hPa | 0 mm | 1.79 m/s, 40° | 0 W/m² | - |
| 1836273904 | 29.44° C | 54% | 1014.3 hPa | 0 mm | 2.24 m/s, 62° | 0 W/m² | - |
| 1778039048 | 21.11° C | 31% | 1014.3 hPa | 0 mm | 3.13 m/s, 243° | 0 W/m² | - |
| 1778038745 | 21.11° C | 31% | 1014.3 hPa | 0 mm | 3.58 m/s, 247° | 0 W/m² | - |
| 1778038443 | 21.11° C | 31% | 1014.2 hPa | 0 mm | 3.13 m/s, 239° | 0 W/m² | - |
| 1778038139 | 21.11° C | 31% | 1014.2 hPa | 0 mm | 2.24 m/s, 236° | 0 W/m² | - |
| 1778037836 | 21.11° C | 31% | 1014.2 hPa | 0 mm | 2.24 m/s, 223° | 0 W/m² | - |
| 1778037533 | 21.11° C | 31% | 1014.2 hPa | 0 mm | 4.92 m/s, 231° | 0 W/m² | - |
| 1778037230 | 21.11° C | 31% | 1013.8 hPa | 0 mm | 1.34 m/s, 271° | 0 W/m² | - |
| 1778036928 | 21.67° C | 30% | 1014 hPa | 0 mm | 2.24 m/s, 239° | 0 W/m² | - |
| 1778036626 | 21.67° C | 30% | 1013.8 hPa | 0 mm | 1.79 m/s, 257° | 0 W/m² | - |
| 1778036322 | 21.67° C | 30% | 1013.6 hPa | 0 mm | 2.24 m/s, 226° | 0 W/m² | - |
| 1778036018 | 21.67° C | 30% | 1013.6 hPa | 0 mm | 3.58 m/s, 225° | 0 W/m² | - |
| 1778035716 | 21.67° C | 30% | 1013.4 hPa | 0 mm | 1.34 m/s, 297° | 0 W/m² | - |
| 1778035413 | 21.67° C | 30% | 1013.5 hPa | 0 mm | 4.92 m/s, 241° | 0 W/m² | - |
| 1778035109 | 21.67° C | 29% | 1013.5 hPa | 0 mm | 3.58 m/s, 265° | 0 W/m² | - |
| 1778034806 | 21.67° C | 29% | 1013.4 hPa | 0 mm | 0.89 m/s, 266° | 0 W/m² | - |
| 1778034502 | 21.67° C | 29% | 1013.5 hPa | 0 mm | 2.24 m/s, 252° | 0 W/m² | - |
| 1778034200 | 21.67° C | 29% | 1013.3 hPa | 0 mm | 5.81 m/s, 219° | 0 W/m² | - |
| 1778033899 | 22.22° C | 29% | 1013.2 hPa | 0 mm | 3.13 m/s, 279° | 0 W/m² | - |
| 1778033595 | 22.22° C | 29% | 1013 hPa | 0 mm | 3.58 m/s, 260° | 0 W/m² | - |
| 1778033291 | 22.22° C | 29% | 1012.9 hPa | 0 mm | 0.89 m/s, 238° | 2 W/m² | - |
* Rain latest hour (hover to see other rain measurements)
** Current wind speed in m/s (hover to see current wind gust speed)